952  
NZUS99 KIND 201309  
HRRIND  
 
WEATHER ROUNDUP FOR INDIANA AND SURROUNDING STATES  
NATIONAL WEATHER SERVICE INDIANAPOLIS IN  
800 AM EST MON NOV 20 2017  
   
..INDIANA
 
 
 
CITY SKY/WX TMP DP RH WIND PRES REMARKS  
INDIANAPOLIS CLOUDY 27 21 78 S7 30.16S WCI 19  
EAGLE CREEK CLOUDY 27 21 78 S3 30.15R  
ZIONSVILLE CLOUDY 28 21 74 S10 30.14S WCI 19  
FISHERS CLOUDY 27 25 93 S5 30.15S WCI 21  
MOUNT COMFORT CLOUDY 27 25 93 S9 30.16S WCI 17  
GREENWOOD CLOUDY 30 24 79 S6 30.17S WCI 24  
SHELBYVILLE CLOUDY 28 21 75 S10 30.18R WCI 19  

 
 
CITY SKY/WX TMP DP RH WIND PRES REMARKS  
LAFAYETTE CLOUDY 31 23 72 SW5 30.11R WCI 26  
KOKOMO CLOUDY 31 24 75 S12 30.11F WCI 22  
FRANKFORT CLOUDY 32 25 74 SW10G16 30.12F WCI 24  
CRAWFORDSVILLE CLOUDY 29 22 76 S10 30.13S WCI 19  
MUNCIE CLEAR 30 21 69 SW8 30.14R WCI 22  
GREENCASTLE CLOUDY 30 19 64 S3 30.15S  
TERRE HAUTE CLOUDY 29 21 72 S8 30.16S WCI 21  
BLOOMINGTON CLOUDY 25 19 78 SE5 30.17F WCI 19  
CAMP ATTERBURY CLOUDY 25 23 93 SE3 30.19F  
COLUMBUS PTCLDY 25 19 80 S5 30.21R WCI 19  
BEDFORD CLOUDY 27 21 80 S7 30.19F WCI 19  
SEYMOUR CLOUDY 27 21 80 SE3 30.23R  
NORTH VERNON CLOUDY 25 21 86 S5 30.22R WCI 19  

 
 
CITY SKY/WX TMP DP RH WIND PRES REMARKS  
GARY PTCLDY 36 23 60 SW8G20 29.99F WCI 29  
VALPARAISO CLEAR 31 24 75 S6 30.01F WCI 25  
LA PORTE PTCLDY 29 24 79 S9 30.01S WCI 21  
MICHIGAN CITY CLEAR 32 23 69 S10G18 30.00S WCI 24  
SOUTH BEND CLEAR 30 23 75 S10 30.01F WCI 21  
ELKHART CLEAR 30 21 69 S6 30.02F WCI 24  
GOSHEN CLEAR 30 21 69 S13 30.04S WCI 20  
KENDALLVILLE CLEAR 28 23 79 S10 30.06R WCI 19  
AUBURN CLEAR 30 21 69 S7 30.08S WCI 23  
RENSSELAER CLOUDY 32 23 69 S15 30.05S WCI 22  
KNOX CLEAR 30 25 80 S12 30.02F WCI 21  
ROCHESTER CLEAR 34 27 75 S10 30.07S WCI 26  
WARSAW CLEAR 30 23 74 S5 30.06S WCI 25  
FORT WAYNE PTCLDY 30 24 78 SW12 30.10S WCI 20  
MONTICELLO CLOUDY 31 22 70 SW12G17 30.07S WCI 22  
LOGANSPORT CLOUDY 30 25 80 S10 30.09F WCI 21  
PERU/GRISSOM CLOUDY 30 24 76 S13 30.08F WCI 20  
HUNTINGTON CLEAR 29 22 75 S6 30.10F WCI 23  
MARION CLEAR 28 23 82 S9 30.13S HAZE WCI 19  
RICHMOND CLEAR 27 23 86 S8 30.18R WCI 18  
WASHINGTON CLOUDY 28 22 75 S8 30.20F WCI 20  
MADISON CLOUDY 28 23 80 S3 30.25R  
HUNTINGBURG CLOUDY 26 23 88 SE7 30.23S WCI 18  
EVANSVILLE CLOUDY 27 24 89 S3 30.24R  

 
   
..ILLINOIS
 
 
 
CITY SKY/WX TMP DP RH WIND PRES REMARKS  
CHICAGO PTCLDY 35 24 64 SW17G23 29.94F WCI 25  
MOLINE PTCLDY 37 26 64 SW5 29.91F WCI 33  
ROCKFORD PTCLDY 31 25 78 S10 29.92F WCI 22  
KANKAKEE CLOUDY 33 25 73 S13 30.03S WCI 23  
PEORIA CLOUDY 32 25 75 S12 30.00F WCI 23  
BLOOMINGTON CLOUDY 32 25 75 S15 30.04S WCI 22  
CHAMPAIGN CLOUDY 31 24 75 S15 30.08S WCI 20  
RANTOUL CLOUDY 33 27 80 S9 30.07S WCI 25  
DANVILLE CLOUDY 31 23 71 S13 30.07S WCI 22  
QUINCY CLEAR 39 27 62 S16 29.99F WCI 30  
SPRINGFIELD CLEAR 35 25 66 S9 30.06S WCI 28  
DECATUR CLEAR 33 23 66 SW13 30.09R WCI 24  
MATTOON CLOUDY 31 23 72 S12 30.11R WCI 22  
PARIS CLOUDY 30 24 77 S9 30.14R WCI 22  
EFFINGHAM CLEAR 30 23 75 SE6 30.17R WCI 24  
ROBINSON CLOUDY 28 22 78 S7 30.18F WCI 21  
OLNEY CLEAR 29 20 70 S7 30.19R WCI 22  
LAWRENCEVILLE CLOUDY 29 23 78 S8 30.20S WCI 21  
MOUNT VERNON CLOUDY 27 25 92 SW6 30.18S WCI 20  
FAIRFIELD CLOUDY 30 24 79 S5 30.18S WCI 25  
MOUNT CARMEL CLOUDY 26 22 85 CALM 30.19S  
CARMI CLOUDY 27 24 88 S3 30.21R  

 
   
..KENTUCKY
 
 
 
CITY SKY/WX TMP DP RH WIND PRES REMARKS  
LOUISVILLE CLOUDY 28 23 81 SE3 30.25S  
PADUCAH CLOUDY 31 21 66 S3 30.23S  
OWENSBORO CLOUDY 27 23 85 S7 30.26R WCI 19  
FORT KNOX CLOUDY 26 20 80 S3 30.23R  
LEXINGTON CLOUDY 25 20 81 S6 30.25R WCI 18  
BOWLING GREEN CLOUDY 26 24 92 CALM 30.29R  
JACKSON CLEAR 27 24 89 CALM 30.25R  

 
   
..OHIO
 
 
 
CITY SKY/WX TMP DP RH WIND PRES REMARKS  
CINCINNATI CLOUDY 25 23 92 S6 30.22R WCI 18  
DAYTON PTCLDY 26 24 92 S12 30.19R WCI 16  
TOLEDO CLEAR 30 24 78 SW9 30.08S WCI 22  
DEFIANCE CLEAR 28 22 78 S8 30.11R WCI 20  
FINDLAY CLEAR 29 22 75 S10 30.11S WCI 20  
LIMA CLEAR 26 23 88 S9 30.13R WCI 17  
WRIGHT-PAT AFB CLEAR 25 22 89 S8 30.20R WCI 16  
COLUMBUS PTCLDY 28 24 85 S6 30.20R WCI 22  
CLEVELAND MOCLDY 29 23 78 SW13 30.14R WCI 19  

 
   
..MICHIGAN
 
 
 
CITY SKY/WX TMP DP RH WIND PRES REMARKS  
DETROIT MOCLDY 29 23 78 SW12 30.05R WCI 19  
GRAND RAPIDS PTCLDY 30 26 85 S12 29.94F WCI 20  
LANSING CLEAR 29 23 78 S10 29.99R WCI 20  
KALAMAZOO CLEAR 29 21 72 S13 30.00F WCI 19  
BATTLE CREEK CLEAR 28 22 78 S12 30.00F WCI 18  
MARSHALL CLEAR 28 21 75 SW5 30.01S WCI 23  
JACKSON CLEAR 30 21 69 S13 30.02R WCI 20  
BENTON HARBOR CLEAR 32 22 66 S9 29.98F WCI 24  
STURGIS CLEAR 28 23 80 S7 30.02F WCI 21  
COLDWATER CLEAR 29 22 74 S6 30.02F WCI 23  
HILLSDALE CLEAR 28 21 74 S8 30.03S WCI 20  

 
   
..OTHER LOCATIONS
 
 
 
CITY SKY/WX TMP DP RH WIND PRES REMARKS  
SAINT LOUIS MO CLOUDY 36 22 56 S7 30.11S WCI 30  
CAPE GIRARDEAU CLOUDY 27 23 85 E3 30.22R  
MILWAUKEE WI MOCLDY 32 25 75 SW12 29.88F WCI 23  
NASHVILLE TN CLOUDY 28 24 85 CALM 30.29R  

 
 
 
 
CLICK HERE TO GO TO PREVIOUS BULLETINS.

The Nexlab IN Page Main Text Page